Time,TemperatureF,DewpointF,PressureIn,WindDirection,WindDirectionDegrees,WindSpeedMPH,WindSpeedGustMPH,Humidity,HourlyPrecipIn,Conditions,Clouds,dailyrainin,SoftwareType,DateUTC
2013-03-03 00:00:00,26.8,21.4,30.41,West,281,2.0,5.0,80,0.00,,,0.00,meteohub,2013-03-03 05:00:00,
2013-03-03 00:05:00,26.8,21.7,30.41,WNW,287,2.0,5.0,81,0.00,,,0.00,meteohub,2013-03-03 05:05:00,
2013-03-03 00:10:00,26.8,21.7,30.41,West,266,2.0,5.0,81,0.00,,,0.00,meteohub,2013-03-03 05:10:00,
2013-03-03 00:15:00,26.8,21.7,30.41,West,278,2.0,4.0,81,0.00,,,0.00,meteohub,2013-03-03 05:15:00,
2013-03-03 00:20:00,26.8,21.7,30.41,West,280,1.0,4.0,81,0.00,,,0.00,meteohub,2013-03-03 05:20:00,
2013-03-03 00:25:00,26.6,21.9,30.41,West,271,2.0,4.0,82,0.00,,,0.00,meteohub,2013-03-03 05:25:00,
2013-03-03 00:30:00,26.6,21.9,30.41,West,269,1.0,4.0,82,0.00,,,0.00,meteohub,2013-03-03 05:30:00,
2013-03-03 00:35:00,26.6,21.9,30.41,West,267,1.0,4.0,82,0.00,,,0.00,meteohub,2013-03-03 05:35:00,
2013-03-03 00:40:00,26.6,21.9,30.41,West,269,2.0,4.0,82,0.00,,,0.00,meteohub,2013-03-03 05:40:00,
2013-03-03 00:45:00,26.4,21.9,30.41,West,276,2.0,5.0,83,0.00,,,0.00,meteohub,2013-03-03 05:45:00,
2013-03-03 00:50:00,26.4,21.9,30.41,West,281,1.0,5.0,83,0.00,,,0.00,meteohub,2013-03-03 05:50:00,
2013-03-03 00:55:00,26.4,21.9,30.41,WNW,294,1.0,4.0,83,0.00,,,0.00,meteohub,2013-03-03 05:55:00,
2013-03-03 01:00:00,26.4,21.9,30.42,WNW,290,1.0,4.0,83,0.00,,,0.00,meteohub,2013-03-03 06:00:00,
2013-03-03 01:05:00,26.4,21.9,30.41,West,271,3.0,4.0,83,0.00,,,0.00,meteohub,2013-03-03 06:05:00,
2013-03-03 01:10:00,26.4,21.9,30.42,WNW,285,4.0,5.0,83,0.00,,,0.00,meteohub,2013-03-03 06:10:00,
2013-03-03 01:15:00,26.4,21.9,30.41,WNW,295,3.0,5.0,83,0.00,,,0.00,meteohub,2013-03-03 06:15:00,
2013-03-03 01:20:00,26.4,22.3,30.41,West,271,2.0,5.0,84,0.00,,,0.00,meteohub,2013-03-03 06:20:00,
2013-03-03 01:25:00,26.4,22.3,30.41,West,268,1.0,6.0,84,0.00,,,0.00,meteohub,2013-03-03 06:25:00,
2013-03-03 01:30:00,26.4,22.3,30.42,WNW,302,0.0,6.0,84,0.00,,,0.00,meteohub,2013-03-03 06:30:00,
2013-03-03 01:35:00,26.4,22.3,30.42,WNW,283,2.0,4.0,84,0.00,,,0.00,meteohub,2013-03-03 06:35:00,
2013-03-03 01:40:00,26.4,22.3,30.41,WNW,283,2.0,4.0,84,0.00,,,0.00,meteohub,2013-03-03 06:40:00,
2013-03-03 01:45:00,26.4,22.3,30.42,WNW,290,3.0,3.0,84,0.00,,,0.00,meteohub,2013-03-03 06:45:00,
2013-03-03 01:50:00,26.4,22.3,30.42,West,281,2.0,4.0,84,0.00,,,0.00,meteohub,2013-03-03 06:50:00,
2013-03-03 01:56:00,26.4,22.3,30.42,WNW,284,3.0,4.0,84,0.00,,,0.00,meteohub,2013-03-03 06:56:00,
2013-03-03 02:01:00,26.2,22.3,30.42,West,276,1.0,4.0,85,0.00,,,0.00,meteohub,2013-03-03 07:01:00,
2013-03-03 02:06:00,26.2,22.3,30.42,WNW,289,1.0,4.0,85,0.00,,,0.00,meteohub,2013-03-03 07:06:00,
2013-03-03 02:11:00,26.2,22.3,30.41,WNW,290,1.0,4.0,85,0.00,,,0.00,meteohub,2013-03-03 07:11:00,
2013-03-03 02:16:00,26.2,22.3,30.41,WNW,284,1.0,3.0,85,0.00,,,0.00,meteohub,2013-03-03 07:16:00,
2013-03-03 02:21:00,26.2,22.3,30.41,NW,307,2.0,2.0,85,0.00,,,0.00,meteohub,2013-03-03 07:21:00,
2013-03-03 02:26:00,26.2,22.3,30.41,NW,317,2.0,3.0,85,0.00,,,0.00,meteohub,2013-03-03 07:26:00,
2013-03-03 02:31:00,26.2,22.1,30.41,NW,310,1.0,4.0,84,0.00,,,0.00,meteohub,2013-03-03 07:31:00,
2013-03-03 02:36:00,26.2,22.1,30.41,WNW,287,1.0,4.0,84,0.00,,,0.00,meteohub,2013-03-03 07:36:00,
2013-03-03 02:41:00,26.2,22.1,30.41,NW,321,1.0,4.0,84,0.00,,,0.00,meteohub,2013-03-03 07:41:00,
2013-03-03 02:46:00,26.2,22.1,30.41,NW,305,2.0,4.0,84,0.00,,,0.00,meteohub,2013-03-03 07:46:00,
2013-03-03 02:51:00,26.2,22.1,30.40,West,276,0.0,4.0,84,0.00,,,0.00,meteohub,2013-03-03 07:51:00,
2013-03-03 02:56:00,26.2,22.3,30.40,WNW,299,1.0,3.0,85,0.00,,,0.00,meteohub,2013-03-03 07:56:00,
2013-03-03 03:01:00,26.2,22.3,30.40,WNW,292,2.0,4.0,85,0.00,,,0.00,meteohub,2013-03-03 08:01:00,
2013-03-03 03:06:00,26.2,22.3,30.40,WNW,289,2.0,4.0,85,0.00,,,0.00,meteohub,2013-03-03 08:06:00,
2013-03-03 03:11:00,26.2,22.3,30.40,NNW,335,1.0,3.0,85,0.00,,,0.00,meteohub,2013-03-03 08:11:00,
2013-03-03 03:16:00,26.2,22.3,30.39,WNW,303,3.0,4.0,85,0.00,,,0.00,meteohub,2013-03-03 08:16:00,
2013-03-03 03:21:00,26.1,22.1,30.40,WNW,287,1.0,4.0,85,0.00,,,0.00,meteohub,2013-03-03 08:21:00,
2013-03-03 03:26:00,26.1,22.1,30.39,NW,309,0.0,4.0,85,0.00,,,0.00,meteohub,2013-03-03 08:26:00,
2013-03-03 03:31:00,26.1,22.1,30.39,WNW,300,2.0,4.0,85,0.00,,,0.00,meteohub,2013-03-03 08:31:00,
2013-03-03 03:36:00,26.1,22.1,30.39,NW,304,0.0,3.0,85,0.00,,,0.00,meteohub,2013-03-03 08:36:00,
2013-03-03 03:41:00,26.1,22.5,30.39,West,276,1.0,3.0,86,0.00,,,0.00,meteohub,2013-03-03 08:41:00,
2013-03-03 03:46:00,26.1,22.6,30.39,WNW,289,2.0,3.0,87,0.00,,,0.00,meteohub,2013-03-03 08:46:00,
2013-03-03 03:51:00,26.1,22.5,30.39,WNW,289,0.0,3.0,86,0.00,,,0.00,meteohub,2013-03-03 08:51:00,
2013-03-03 03:56:00,26.1,22.5,30.39,NNW,332,0.0,3.0,86,0.00,,,0.00,meteohub,2013-03-03 08:56:00,
2013-03-03 04:01:00,26.1,22.5,30.39,WNW,284,1.0,3.0,86,0.00,,,0.00,meteohub,2013-03-03 09:01:00,
2013-03-03 04:06:00,26.1,22.6,30.39,WNW,284,1.0,2.0,87,0.00,,,0.00,meteohub,2013-03-03 09:06:00,
2013-03-03 04:11:00,26.1,22.6,30.39,WNW,284,2.0,2.0,87,0.00,,,0.00,meteohub,2013-03-03 09:11:00,
2013-03-03 04:16:00,26.1,22.6,30.39,WNW,293,2.0,3.0,87,0.00,,,0.00,meteohub,2013-03-03 09:16:00,
2013-03-03 04:21:00,26.1,23.0,30.39,West,276,2.0,3.0,88,0.00,,,0.00,meteohub,2013-03-03 09:21:00,
2013-03-03 04:26:00,26.1,23.0,30.39,West,281,1.0,3.0,88,0.00,,,0.00,meteohub,2013-03-03 09:26:00,
2013-03-03 04:31:00,26.1,23.0,30.39,West,264,1.0,4.0,88,0.00,,,0.00,meteohub,2013-03-03 09:31:00,
2013-03-03 04:36:00,26.1,23.2,30.39,West,262,1.0,4.0,89,0.00,,,0.00,meteohub,2013-03-03 09:36:00,
2013-03-03 04:41:00,26.1,23.2,30.39,WNW,283,3.0,4.0,89,0.00,,,0.00,meteohub,2013-03-03 09:41:00,
2013-03-03 04:46:00,26.1,23.2,30.39,WSW,248,4.0,4.0,89,0.00,,,0.00,meteohub,2013-03-03 09:46:00,
2013-03-03 04:51:00,26.1,23.2,30.39,WNW,283,2.0,5.0,89,0.00,,,0.00,meteohub,2013-03-03 09:51:00,
2013-03-03 04:57:00,26.1,23.2,30.39,West,263,1.0,5.0,89,0.00,,,0.00,meteohub,2013-03-03 09:57:00,
2013-03-03 05:02:00,26.1,23.2,30.39,West,277,1.0,5.0,89,0.00,,,0.00,meteohub,2013-03-03 10:02:00,
2013-03-03 05:07:00,26.1,23.2,30.40,WSW,253,2.0,5.0,89,0.00,,,0.00,meteohub,2013-03-03 10:07:00,
2013-03-03 05:12:00,26.1,23.2,30.40,WSW,250,2.0,5.0,89,0.00,,,0.00,meteohub,2013-03-03 10:12:00,
2013-03-03 05:17:00,26.1,23.0,30.40,WNW,296,2.0,5.0,88,0.00,,,0.00,meteohub,2013-03-03 10:17:00,
2013-03-03 05:22:00,26.1,23.0,30.40,West,276,4.0,5.0,88,0.00,,,0.00,meteohub,2013-03-03 10:22:00,
2013-03-03 05:27:00,26.1,23.0,30.40,West,281,1.0,5.0,88,0.00,,,0.00,meteohub,2013-03-03 10:27:00,
2013-03-03 05:32:00,26.2,23.4,30.39,WNW,287,0.0,5.0,89,0.00,,,0.00,meteohub,2013-03-03 10:32:00,
2013-03-03 05:37:00,26.1,23.0,30.39,West,274,1.0,5.0,88,0.00,,,0.00,meteohub,2013-03-03 10:37:00,
2013-03-03 05:42:00,26.2,23.2,30.39,West,281,0.0,5.0,88,0.00,,,0.00,meteohub,2013-03-03 10:42:00,
2013-03-03 05:47:00,26.2,23.2,30.39,West,281,2.0,6.0,88,0.00,,,0.00,meteohub,2013-03-03 10:47:00,
2013-03-03 05:52:00,26.2,23.2,30.39,NNW,335,4.0,6.0,88,0.00,,,0.00,meteohub,2013-03-03 10:52:00,
2013-03-03 05:57:00,26.2,23.2,30.39,West,259,1.0,6.0,88,0.00,,,0.00,meteohub,2013-03-03 10:57:00,
2013-03-03 06:02:00,26.2,23.2,30.39,NNW,328,6.0,7.0,88,0.00,,,0.00,meteohub,2013-03-03 11:02:00,
2013-03-03 06:07:00,26.2,23.2,30.39,NW,316,2.0,10.0,88,0.00,,,0.00,meteohub,2013-03-03 11:07:00,
2013-03-03 06:12:00,26.2,22.8,30.39,NW,318,2.0,10.0,87,0.00,,,0.00,meteohub,2013-03-03 11:12:00,
2013-03-03 06:17:00,26.1,22.5,30.39,NW,317,3.0,10.0,86,0.00,,,0.00,meteohub,2013-03-03 11:17:00,
2013-03-03 06:22:00,26.1,22.1,30.40,NW,314,3.0,11.0,85,0.00,,,0.00,meteohub,2013-03-03 11:22:00,
2013-03-03 06:27:00,25.9,21.9,30.40,WNW,296,5.0,11.0,85,0.00,,,0.00,meteohub,2013-03-03 11:27:00,
2013-03-03 06:32:00,25.9,21.9,30.40,NW,318,4.0,12.0,85,0.00,,,0.00,meteohub,2013-03-03 11:32:00,
2013-03-03 06:37:00,25.9,21.7,30.40,WNW,293,9.0,12.0,84,0.00,,,0.00,meteohub,2013-03-03 11:37:00,
2013-03-03 06:42:00,25.7,21.2,30.40,NNW,330,4.0,13.0,83,0.00,,,0.00,meteohub,2013-03-03 11:42:00,
2013-03-03 06:47:00,25.7,21.2,30.40,NW,323,5.0,13.0,83,0.00,,,0.00,meteohub,2013-03-03 11:47:00,
2013-03-03 06:52:00,25.7,21.0,30.40,NW,321,3.0,13.0,82,0.00,,,0.00,meteohub,2013-03-03 11:52:00,
2013-03-03 06:57:00,25.7,21.2,30.40,NW,309,3.0,10.0,83,0.00,,,0.00,meteohub,2013-03-03 11:57:00,
2013-03-03 07:02:00,25.5,20.5,30.40,WNW,301,3.0,9.0,81,0.00,,,0.00,meteohub,2013-03-03 12:02:00,
2013-03-03 07:07:00,25.5,19.4,30.40,NW,312,5.0,6.0,77,0.00,,,0.00,meteohub,2013-03-03 12:07:00,
2013-03-03 07:12:00,25.5,19.0,30.40,WNW,290,7.0,10.0,76,0.00,,,0.00,meteohub,2013-03-03 12:12:00,
2013-03-03 07:17:00,25.5,19.0,30.40,NW,307,4.0,12.0,76,0.00,,,0.00,meteohub,2013-03-03 12:17:00,
2013-03-03 07:22:00,25.3,18.5,30.40,NNW,337,7.0,12.0,75,0.00,,,0.00,meteohub,2013-03-03 12:22:00,
2013-03-03 07:27:00,25.5,18.3,30.40,WNW,302,10.0,12.0,74,0.00,,,0.00,meteohub,2013-03-03 12:27:00,
2013-03-03 07:32:00,25.3,18.0,30.40,NW,314,7.0,12.0,73,0.00,,,0.00,meteohub,2013-03-03 12:32:00,
2013-03-03 07:37:00,25.5,18.1,30.40,NW,314,5.0,12.0,73,0.00,,,0.00,meteohub,2013-03-03 12:37:00,
2013-03-03 07:42:00,25.5,18.3,30.40,NNW,340,5.0,12.0,74,0.00,,,0.00,meteohub,2013-03-03 12:42:00,
2013-03-03 07:47:00,25.5,18.3,30.41,NNW,347,4.0,12.0,74,0.00,,,0.00,meteohub,2013-03-03 12:47:00,
2013-03-03 07:52:00,25.5,18.7,30.41,NW,321,4.0,9.0,75,0.00,,,0.00,meteohub,2013-03-03 12:52:00,
2013-03-03 07:56:00,25.5,18.3,30.41,WNW,300,2.0,9.0,74,0.00,,,0.00,meteohub,2013-03-03 12:56:00,
2013-03-03 08:01:00,25.5,18.1,30.41,NW,317,3.0,8.0,73,0.00,,,0.00,meteohub,2013-03-03 13:01:00,
2013-03-03 08:07:00,25.5,18.3,30.41,NNW,347,4.0,8.0,74,0.00,,,0.00,meteohub,2013-03-03 13:07:00,
2013-03-03 08:12:00,25.7,18.9,30.41,NNW,328,2.0,11.0,75,0.00,,,0.00,meteohub,2013-03-03 13:12:00,
2013-03-03 08:17:00,25.9,19.0,30.42,NNW,346,1.0,11.0,75,0.00,,,0.00,meteohub,2013-03-03 13:17:00,
2013-03-03 08:22:00,25.9,19.4,30.42,West,270,0.0,7.0,76,0.00,,,0.00,meteohub,2013-03-03 13:22:00,
2013-03-03 08:27:00,26.1,19.2,30.42,NW,319,5.0,7.0,75,0.00,,,0.00,meteohub,2013-03-03 13:27:00,
2013-03-03 08:32:00,26.1,19.2,30.42,NW,323,5.0,7.0,75,0.00,,,0.00,meteohub,2013-03-03 13:32:00,
2013-03-03 08:37:00,26.1,19.2,30.42,NNE,15,0.0,7.0,75,0.00,,,0.00,meteohub,2013-03-03 13:37:00,
2013-03-03 08:42:00,26.1,18.9,30.42,NNW,338,4.0,7.0,74,0.00,,,0.00,meteohub,2013-03-03 13:42:00,
2013-03-03 08:47:00,26.1,18.9,30.42,NW,321,2.0,9.0,74,0.00,,,0.00,meteohub,2013-03-03 13:47:00,
2013-03-03 08:52:00,26.2,19.0,30.42,NNE,22,4.0,9.0,74,0.00,,,0.00,meteohub,2013-03-03 13:52:00,
2013-03-03 08:57:00,26.2,18.9,30.42,NW,312,5.0,8.0,73,0.00,,,0.00,meteohub,2013-03-03 13:57:00,
2013-03-03 09:02:00,26.2,18.9,30.42,NNE,21,5.0,8.0,73,0.00,,,0.00,meteohub,2013-03-03 14:02:00,
2013-03-03 09:07:00,26.2,18.9,30.42,North,5,5.0,8.0,73,0.00,,,0.00,meteohub,2013-03-03 14:07:00,
2013-03-03 09:12:00,26.4,18.9,30.42,West,273,3.0,8.0,73,0.00,,,0.00,meteohub,2013-03-03 14:12:00,
2013-03-03 09:17:00,26.4,18.3,30.42,WNW,287,3.0,7.0,71,0.00,,,0.00,meteohub,2013-03-03 14:17:00,
2013-03-03 09:22:00,26.6,18.5,30.42,NW,311,4.0,8.0,71,0.00,,,0.00,meteohub,2013-03-03 14:22:00,
2013-03-03 09:27:00,26.8,19.0,30.42,WNW,298,5.0,10.0,72,0.00,,,0.00,meteohub,2013-03-03 14:27:00,
2013-03-03 09:32:00,27.0,19.2,30.42,NW,313,1.0,12.0,72,0.00,,,0.00,meteohub,2013-03-03 14:32:00,
2013-03-03 09:37:00,27.0,18.5,30.42,NNW,335,6.0,12.0,70,0.00,,,0.00,meteohub,2013-03-03 14:37:00,
2013-03-03 09:42:00,27.1,19.0,30.42,North,4,4.0,12.0,71,0.00,,,0.00,meteohub,2013-03-03 14:42:00,
2013-03-03 09:47:00,27.3,18.5,30.42,NNW,340,5.0,12.0,69,0.00,,,0.00,meteohub,2013-03-03 14:47:00,
2013-03-03 09:52:00,27.5,18.3,30.42,NW,305,7.0,10.0,68,0.00,,,0.00,meteohub,2013-03-03 14:52:00,
2013-03-03 09:57:00,27.5,18.3,30.42,NW,324,10.0,12.0,68,0.00,,,0.00,meteohub,2013-03-03 14:57:00,
2013-03-03 10:02:00,27.3,18.1,30.42,WNW,292,2.0,13.0,68,0.00,,,0.00,meteohub,2013-03-03 15:02:00,
2013-03-03 10:07:00,27.5,18.0,30.42,WNW,300,8.0,13.0,67,0.00,,,0.00,meteohub,2013-03-03 15:07:00,
2013-03-03 10:12:00,27.9,18.0,30.42,NW,305,4.0,13.0,66,0.00,,,0.00,meteohub,2013-03-03 15:12:00,
2013-03-03 10:17:00,27.9,18.3,30.42,WNW,293,5.0,11.0,67,0.00,,,0.00,meteohub,2013-03-03 15:17:00,
2013-03-03 10:22:00,27.7,17.4,30.42,NNW,338,6.0,15.0,65,0.00,,,0.00,meteohub,2013-03-03 15:22:00,
2013-03-03 10:27:00,27.9,18.0,30.42,WNW,293,10.0,16.0,66,0.00,,,0.00,meteohub,2013-03-03 15:27:00,
2013-03-03 10:32:00,28.0,18.1,30.42,NW,304,7.0,16.0,66,0.00,,,0.00,meteohub,2013-03-03 15:32:00,
2013-03-03 10:37:00,28.0,18.1,30.42,NW,315,5.0,14.0,66,0.00,,,0.00,meteohub,2013-03-03 15:37:00,
2013-03-03 10:42:00,28.0,18.9,30.42,NNW,328,7.0,14.0,68,0.00,,,0.00,meteohub,2013-03-03 15:42:00,
2013-03-03 10:47:00,28.0,18.1,30.42,WNW,296,9.0,14.0,66,0.00,,,0.00,meteohub,2013-03-03 15:47:00,
2013-03-03 10:52:00,28.0,18.1,30.42,NW,321,4.0,15.0,66,0.00,,,0.00,meteohub,2013-03-03 15:52:00,
2013-03-03 10:57:00,28.4,18.5,30.43,WNW,293,6.0,15.0,66,0.00,,,0.00,meteohub,2013-03-03 15:57:00,
2013-03-03 11:01:00,28.6,18.7,30.42,NW,311,4.0,15.0,66,0.00,,,0.00,meteohub,2013-03-03 16:01:00,
2013-03-03 11:07:00,28.2,18.3,30.42,WNW,300,4.0,18.0,66,0.00,,,0.00,meteohub,2013-03-03 16:07:00,
2013-03-03 11:12:00,28.2,19.0,30.42,NNW,335,15.0,18.0,68,0.00,,,0.00,meteohub,2013-03-03 16:12:00,
2013-03-03 11:17:00,28.0,19.2,30.42,NW,308,4.0,18.0,69,0.00,,,0.00,meteohub,2013-03-03 16:17:00,
2013-03-03 11:22:00,28.0,18.5,30.42,WNW,296,7.0,17.0,67,0.00,,,0.00,meteohub,2013-03-03 16:22:00,
2013-03-03 11:27:00,28.2,18.7,30.42,WNW,300,13.0,17.0,67,0.00,,,0.00,meteohub,2013-03-03 16:27:00,
2013-03-03 11:32:00,28.2,18.0,30.42,North,355,7.0,16.0,65,0.00,,,0.00,meteohub,2013-03-03 16:32:00,
2013-03-03 11:37:00,28.6,18.3,30.42,NW,315,12.0,16.0,65,0.00,,,0.00,meteohub,2013-03-03 16:37:00,
2013-03-03 11:41:00,28.8,18.5,30.42,WNW,289,5.0,15.0,65,0.00,,,0.00,meteohub,2013-03-03 16:41:00,
2013-03-03 11:47:00,28.9,18.3,30.42,NNW,337,5.0,13.0,64,0.00,,,0.00,meteohub,2013-03-03 16:47:00,
2013-03-03 11:52:00,29.1,18.1,30.41,WNW,302,9.0,13.0,63,0.00,,,0.00,meteohub,2013-03-03 16:52:00,
2013-03-03 11:57:00,29.3,18.3,30.41,West,281,4.0,14.0,63,0.00,,,0.00,meteohub,2013-03-03 16:57:00,
2013-03-03 12:02:00,29.5,18.5,30.41,North,5,7.0,14.0,63,0.00,,,0.00,meteohub,2013-03-03 17:02:00,
2013-03-03 12:07:00,29.5,17.2,30.41,NW,315,10.0,15.0,60,0.00,,,0.00,meteohub,2013-03-03 17:07:00,
2013-03-03 12:12:00,29.7,18.3,30.41,NNW,342,8.0,15.0,62,0.00,,,0.00,meteohub,2013-03-03 17:12:00,
2013-03-03 12:17:00,30.0,17.4,30.41,NW,309,7.0,15.0,59,0.00,,,0.00,meteohub,2013-03-03 17:17:00,
2013-03-03 12:22:00,29.8,17.2,30.41,NW,316,3.0,15.0,59,0.00,,,0.00,meteohub,2013-03-03 17:22:00,
2013-03-03 12:27:00,30.0,17.4,30.41,West,274,15.0,15.0,59,0.00,,,0.00,meteohub,2013-03-03 17:27:00,
2013-03-03 12:32:00,30.4,18.1,30.40,NW,316,9.0,19.0,60,0.00,,,0.00,meteohub,2013-03-03 17:32:00,
2013-03-03 12:37:00,30.4,18.1,30.40,NW,315,2.0,19.0,60,0.00,,,0.00,meteohub,2013-03-03 17:37:00,
2013-03-03 12:42:00,30.4,17.8,30.40,NW,312,15.0,19.0,59,0.00,,,0.00,meteohub,2013-03-03 17:42:00,
2013-03-03 12:47:00,29.8,17.6,30.40,WNW,295,6.0,19.0,60,0.00,,,0.00,meteohub,2013-03-03 17:47:00,
2013-03-03 12:52:00,29.8,17.6,30.40,WNW,289,13.0,19.0,60,0.00,,,0.00,meteohub,2013-03-03 17:52:00,
2013-03-03 12:57:00,29.7,17.4,30.40,NW,322,3.0,19.0,60,0.00,,,0.00,meteohub,2013-03-03 17:57:00,
2013-03-03 13:02:00,29.7,17.4,30.40,West,269,10.0,17.0,60,0.00,,,0.00,meteohub,2013-03-03 18:02:00,
2013-03-03 13:07:00,29.7,17.4,30.40,NW,311,7.0,17.0,60,0.00,,,0.00,meteohub,2013-03-03 18:07:00,
2013-03-03 13:12:00,29.8,18.0,30.40,WNW,295,9.0,17.0,61,0.00,,,0.00,meteohub,2013-03-03 18:12:00,
2013-03-03 13:17:00,29.8,18.0,30.40,West,276,7.0,17.0,61,0.00,,,0.00,meteohub,2013-03-03 18:17:00,
2013-03-03 13:22:00,30.0,17.8,30.40,WNW,297,4.0,15.0,60,0.00,,,0.00,meteohub,2013-03-03 18:22:00,
2013-03-03 13:27:00,30.4,18.9,30.39,NW,311,7.0,15.0,62,0.00,,,0.00,meteohub,2013-03-03 18:27:00,
2013-03-03 13:32:00,30.2,18.3,30.39,NNW,328,3.0,13.0,61,0.00,,,0.00,meteohub,2013-03-03 18:32:00,
2013-03-03 13:37:00,30.6,19.0,30.39,West,265,3.0,13.0,62,0.00,,,0.00,meteohub,2013-03-03 18:37:00,
2013-03-03 13:42:00,30.2,18.0,30.39,WNW,302,5.0,12.0,60,0.00,,,0.00,meteohub,2013-03-03 18:42:00,
2013-03-03 13:47:00,30.0,18.1,30.39,West,263,6.0,12.0,61,0.00,,,0.00,meteohub,2013-03-03 18:47:00,
2013-03-03 13:52:00,30.4,18.1,30.38,WNW,292,5.0,15.0,60,0.00,,,0.00,meteohub,2013-03-03 18:52:00,
2013-03-03 13:57:00,30.0,17.8,30.38,WNW,292,6.0,18.0,60,0.00,,,0.00,meteohub,2013-03-03 18:57:00,
2013-03-03 14:02:00,30.2,18.0,30.38,NW,310,7.0,18.0,60,0.00,,,0.00,meteohub,2013-03-03 19:02:00,
2013-03-03 14:07:00,30.6,18.3,30.38,NW,321,19.0,19.0,60,0.00,,,0.00,meteohub,2013-03-03 19:07:00,
2013-03-03 14:12:00,30.4,17.4,30.38,WNW,289,4.0,19.0,58,0.00,,,0.00,meteohub,2013-03-03 19:12:00,
2013-03-03 14:17:00,30.7,18.5,30.38,NNW,340,7.0,19.0,60,0.00,,,0.00,meteohub,2013-03-03 19:17:00,
2013-03-03 14:22:00,30.7,18.5,30.38,WNW,296,3.0,19.0,60,0.00,,,0.00,meteohub,2013-03-03 19:22:00,
2013-03-03 14:27:00,30.6,18.3,30.38,NNW,335,9.0,16.0,60,0.00,,,0.00,meteohub,2013-03-03 19:27:00,
2013-03-03 14:32:00,30.4,18.5,30.39,NW,305,7.0,17.0,61,0.00,,,0.00,meteohub,2013-03-03 19:32:00,
2013-03-03 14:37:00,30.6,19.0,30.38,WNW,287,5.0,17.0,62,0.00,,,0.00,meteohub,2013-03-03 19:37:00,
2013-03-03 14:42:00,30.6,18.7,30.38,NNW,335,3.0,17.0,61,0.00,,,0.00,meteohub,2013-03-03 19:42:00,
2013-03-03 14:47:00,30.9,19.0,30.39,WNW,299,8.0,13.0,61,0.00,,,0.00,meteohub,2013-03-03 19:47:00,
2013-03-03 14:52:00,30.7,18.1,30.39,WNW,298,8.0,12.0,59,0.00,,,0.00,meteohub,2013-03-03 19:52:00,
2013-03-03 14:57:00,30.6,17.6,30.39,WNW,302,10.0,13.0,58,0.00,,,0.00,meteohub,2013-03-03 19:57:00,
2013-03-03 15:02:00,30.6,18.3,30.39,WNW,295,8.0,17.0,60,0.00,,,0.00,meteohub,2013-03-03 20:02:00,
2013-03-03 15:07:00,30.6,18.3,30.39,NW,308,13.0,17.0,60,0.00,,,0.00,meteohub,2013-03-03 20:07:00,
2013-03-03 15:12:00,30.6,18.0,30.39,WSW,250,6.0,17.0,59,0.00,,,0.00,meteohub,2013-03-03 20:12:00,
2013-03-03 15:17:00,30.6,18.0,30.39,NW,310,9.0,16.0,59,0.00,,,0.00,meteohub,2013-03-03 20:17:00,
2013-03-03 15:22:00,30.6,18.3,30.39,WNW,294,3.0,16.0,60,0.00,,,0.00,meteohub,2013-03-03 20:22:00,
2013-03-03 15:27:00,30.6,17.6,30.39,NNW,328,4.0,15.0,58,0.00,,,0.00,meteohub,2013-03-03 20:27:00,
2013-03-03 15:32:00,30.6,17.6,30.39,NW,325,5.0,17.0,58,0.00,,,0.00,meteohub,2013-03-03 20:32:00,
2013-03-03 15:37:00,30.6,18.0,30.39,WNW,293,6.0,17.0,59,0.00,,,0.00,meteohub,2013-03-03 20:37:00,
2013-03-03 15:42:00,30.7,18.1,30.39,NNW,328,10.0,14.0,59,0.00,,,0.00,meteohub,2013-03-03 20:42:00,
2013-03-03 15:47:00,30.4,17.8,30.39,NNW,340,4.0,14.0,59,0.00,,,0.00,meteohub,2013-03-03 20:47:00,
2013-03-03 15:52:00,30.7,18.9,30.39,West,262,6.0,13.0,61,0.00,,,0.00,meteohub,2013-03-03 20:52:00,
2013-03-03 15:57:00,30.7,18.9,30.39,West,262,3.0,13.0,61,0.00,,,0.00,meteohub,2013-03-03 20:57:00,
2013-03-03 16:02:00,30.7,18.5,30.39,WNW,284,8.0,12.0,60,0.00,,,0.00,meteohub,2013-03-03 21:02:00,
2013-03-03 16:07:00,30.6,18.3,30.39,WNW,303,4.0,12.0,60,0.00,,,0.00,meteohub,2013-03-03 21:07:00,
2013-03-03 16:12:00,30.6,18.3,30.39,NW,305,8.0,12.0,60,0.00,,,0.00,meteohub,2013-03-03 21:12:00,
2013-03-03 16:17:00,30.6,18.7,30.39,WNW,293,4.0,14.0,61,0.00,,,0.00,meteohub,2013-03-03 21:17:00,
2013-03-03 16:22:00,30.6,18.3,30.39,NW,316,5.0,14.0,60,0.00,,,0.00,meteohub,2013-03-03 21:22:00,
2013-03-03 16:27:00,30.6,19.0,30.39,WNW,293,8.0,14.0,62,0.00,,,0.00,meteohub,2013-03-03 21:27:00,
2013-03-03 16:32:00,30.4,18.5,30.39,WNW,289,9.0,12.0,61,0.00,,,0.00,meteohub,2013-03-03 21:32:00,
2013-03-03 16:37:00,30.4,19.2,30.40,WNW,293,4.0,14.0,63,0.00,,,0.00,meteohub,2013-03-03 21:37:00,
2013-03-03 16:42:00,30.4,19.2,30.40,WNW,300,4.0,14.0,63,0.00,,,0.00,meteohub,2013-03-03 21:42:00,
2013-03-03 16:47:00,30.4,19.6,30.40,West,266,5.0,14.0,64,0.00,,,0.00,meteohub,2013-03-03 21:47:00,
2013-03-03 16:52:00,30.4,19.9,30.40,WNW,296,6.0,12.0,65,0.00,,,0.00,meteohub,2013-03-03 21:52:00,
2013-03-03 16:57:00,30.2,19.9,30.40,WNW,295,7.0,12.0,65,0.00,,,0.00,meteohub,2013-03-03 21:57:00,
2013-03-03 17:02:00,30.2,20.3,30.40,NW,324,2.0,13.0,66,0.00,,,0.00,meteohub,2013-03-03 22:02:00,
2013-03-03 17:07:00,30.4,19.9,30.40,WNW,294,1.0,13.0,65,0.00,,,0.00,meteohub,2013-03-03 22:07:00,
2013-03-03 17:12:00,30.4,19.9,30.40,WNW,283,7.0,13.0,65,0.00,,,0.00,meteohub,2013-03-03 22:12:00,
2013-03-03 17:17:00,30.4,20.3,30.40,WNW,289,9.0,11.0,66,0.00,,,0.00,meteohub,2013-03-03 22:17:00,
2013-03-03 17:22:00,30.2,20.3,30.40,WNW,293,8.0,11.0,66,0.00,,,0.00,meteohub,2013-03-03 22:22:00,
2013-03-03 17:27:00,30.0,19.8,30.40,WNW,289,5.0,11.0,65,0.00,,,0.00,meteohub,2013-03-03 22:27:00,
2013-03-03 17:32:00,30.0,20.5,30.40,WNW,301,3.0,12.0,67,0.00,,,0.00,meteohub,2013-03-03 22:32:00,
2013-03-03 17:37:00,30.0,20.5,30.40,WNW,283,9.0,12.0,67,0.00,,,0.00,meteohub,2013-03-03 22:37:00,
2013-03-03 17:42:00,29.8,20.3,30.40,West,271,13.0,13.0,67,0.00,,,0.00,meteohub,2013-03-03 22:42:00,
2013-03-03 17:47:00,29.8,20.7,30.40,WSW,257,1.0,13.0,68,0.00,,,0.00,meteohub,2013-03-03 22:47:00,
2013-03-03 17:52:00,30.0,20.7,30.40,WNW,287,7.0,13.0,68,0.00,,,0.00,meteohub,2013-03-03 22:52:00,
2013-03-03 17:57:00,29.8,19.9,30.40,WNW,296,9.0,13.0,66,0.00,,,0.00,meteohub,2013-03-03 22:57:00,
2013-03-03 18:02:00,29.8,19.9,30.41,West,266,5.0,13.0,66,0.00,,,0.00,meteohub,2013-03-03 23:02:00,
2013-03-03 18:07:00,29.8,19.9,30.40,West,273,3.0,13.0,66,0.00,,,0.00,meteohub,2013-03-03 23:07:00,
2013-03-03 18:12:00,29.8,18.9,30.41,West,280,1.0,13.0,63,0.00,,,0.00,meteohub,2013-03-03 23:12:00,
2013-03-03 18:17:00,29.8,18.9,30.41,West,278,5.0,13.0,63,0.00,,,0.00,meteohub,2013-03-03 23:17:00,
2013-03-03 18:22:00,29.7,18.3,30.41,WNW,295,4.0,13.0,62,0.00,,,0.00,meteohub,2013-03-03 23:22:00,
2013-03-03 18:27:00,29.7,18.7,30.41,West,266,5.0,10.0,63,0.00,,,0.00,meteohub,2013-03-03 23:27:00,
2013-03-03 18:32:00,29.7,18.7,30.41,West,281,2.0,10.0,63,0.00,,,0.00,meteohub,2013-03-03 23:32:00,
2013-03-03 18:37:00,29.7,18.7,30.41,West,264,7.0,10.0,63,0.00,,,0.00,meteohub,2013-03-03 23:37:00,
2013-03-03 18:42:00,29.7,19.0,30.42,West,269,3.0,10.0,64,0.00,,,0.00,meteohub,2013-03-03 23:42:00,
2013-03-03 18:47:00,29.7,18.7,30.42,WNW,296,5.0,10.0,63,0.00,,,0.00,meteohub,2013-03-03 23:47:00,
2013-03-03 18:52:00,29.7,19.4,30.42,WNW,289,2.0,10.0,65,0.00,,,0.00,meteohub,2013-03-03 23:52:00,
2013-03-03 18:57:00,29.7,19.4,30.42,WNW,284,3.0,8.0,65,0.00,,,0.00,meteohub,2013-03-03 23:57:00,
2013-03-03 19:02:00,29.5,19.6,30.42,West,262,2.0,8.0,66,0.00,,,0.00,meteohub,2013-03-04 00:02:00,
2013-03-03 19:07:00,29.5,19.9,30.42,West,269,4.0,7.0,67,0.00,,,0.00,meteohub,2013-03-04 00:07:00,
2013-03-03 19:12:00,29.5,20.3,30.42,NW,315,2.0,7.0,68,0.00,,,0.00,meteohub,2013-03-04 00:12:00,
2013-03-03 19:17:00,29.5,20.3,30.42,NW,305,7.0,11.0,68,0.00,,,0.00,meteohub,2013-03-04 00:17:00,
2013-03-03 19:22:00,29.5,20.3,30.43,NW,315,4.0,11.0,68,0.00,,,0.00,meteohub,2013-03-04 00:22:00,
2013-03-03 19:27:00,29.3,20.5,30.43,West,271,3.0,11.0,69,0.00,,,0.00,meteohub,2013-03-04 00:27:00,
2013-03-03 19:32:00,29.3,20.7,30.43,West,261,5.0,7.0,70,0.00,,,0.00,meteohub,2013-03-04 00:32:00,
2013-03-03 19:37:00,29.1,20.5,30.43,WNW,295,4.0,8.0,70,0.00,,,0.00,meteohub,2013-03-04 00:37:00,
2013-03-03 19:42:00,29.1,20.8,30.43,West,266,4.0,9.0,71,0.00,,,0.00,meteohub,2013-03-04 00:42:00,
2013-03-03 19:47:00,29.1,21.2,30.43,West,264,2.0,9.0,72,0.00,,,0.00,meteohub,2013-03-04 00:47:00,
2013-03-03 19:53:00,29.1,21.2,30.43,West,271,5.0,9.0,72,0.00,,,0.00,meteohub,2013-03-04 00:53:00,
2013-03-03 19:58:00,28.9,21.0,30.43,West,278,3.0,8.0,72,0.00,,,0.00,meteohub,2013-03-04 00:58:00,
2013-03-03 20:03:00,28.9,21.4,30.43,NW,315,3.0,8.0,73,0.00,,,0.00,meteohub,2013-03-04 01:03:00,
2013-03-03 20:08:00,28.9,21.0,30.43,WNW,289,3.0,8.0,72,0.00,,,0.00,meteohub,2013-03-04 01:08:00,
2013-03-03 20:13:00,28.9,20.7,30.43,WNW,293,2.0,8.0,71,0.00,,,0.00,meteohub,2013-03-04 01:13:00,
2013-03-03 20:18:00,28.9,20.1,30.43,NW,319,5.0,8.0,69,0.00,,,0.00,meteohub,2013-03-04 01:18:00,
2013-03-03 20:23:00,29.1,20.3,30.43,West,271,2.0,8.0,69,0.00,,,0.00,meteohub,2013-03-04 01:23:00,
2013-03-03 20:28:00,29.1,20.3,30.43,WNW,293,3.0,7.0,69,0.00,,,0.00,meteohub,2013-03-04 01:28:00,
2013-03-03 20:33:00,29.1,20.3,30.43,West,281,2.0,6.0,69,0.00,,,0.00,meteohub,2013-03-04 01:33:00,
2013-03-03 20:38:00,28.9,20.1,30.43,West,263,2.0,6.0,69,0.00,,,0.00,meteohub,2013-03-04 01:38:00,
2013-03-03 20:43:00,29.1,20.3,30.43,NW,306,5.0,6.0,69,0.00,,,0.00,meteohub,2013-03-04 01:43:00,
2013-03-03 20:48:00,28.9,20.1,30.43,WNW,302,2.0,5.0,69,0.00,,,0.00,meteohub,2013-03-04 01:48:00,
2013-03-03 20:53:00,29.1,20.3,30.43,WNW,283,4.0,5.0,69,0.00,,,0.00,meteohub,2013-03-04 01:53:00,
2013-03-03 20:58:00,28.9,20.5,30.44,WNW,283,2.0,5.0,70,0.00,,,0.00,meteohub,2013-03-04 01:58:00,
2013-03-03 21:03:00,28.9,20.5,30.44,WNW,296,1.0,5.0,70,0.00,,,0.00,meteohub,2013-03-04 02:03:00,
2013-03-03 21:08:00,28.9,20.7,30.44,WNW,293,2.0,5.0,71,0.00,,,0.00,meteohub,2013-03-04 02:08:00,
2013-03-03 21:13:00,28.9,20.7,30.43,West,269,1.0,4.0,71,0.00,,,0.00,meteohub,2013-03-04 02:13:00,
2013-03-03 21:18:00,28.9,20.7,30.44,West,276,2.0,4.0,71,0.00,,,0.00,meteohub,2013-03-04 02:18:00,
2013-03-03 21:23:00,28.9,20.7,30.43,West,281,1.0,4.0,71,0.00,,,0.00,meteohub,2013-03-04 02:23:00,
2013-03-03 21:28:00,28.8,20.8,30.43,WNW,283,2.0,4.0,72,0.00,,,0.00,meteohub,2013-03-04 02:28:00,
2013-03-03 21:33:00,28.8,20.8,30.43,West,276,0.0,4.0,72,0.00,,,0.00,meteohub,2013-03-04 02:33:00,
2013-03-03 21:38:00,28.8,20.8,30.43,West,271,2.0,3.0,72,0.00,,,0.00,meteohub,2013-03-04 02:38:00,
2013-03-03 21:43:00,28.8,20.8,30.43,West,273,1.0,4.0,72,0.00,,,0.00,meteohub,2013-03-04 02:43:00,
2013-03-03 21:48:00,28.8,20.8,30.43,West,259,2.0,4.0,72,0.00,,,0.00,meteohub,2013-03-04 02:48:00,
2013-03-03 21:53:00,28.8,21.2,30.43,WNW,287,2.0,4.0,73,0.00,,,0.00,meteohub,2013-03-04 02:53:00,
2013-03-03 21:58:00,28.6,21.0,30.43,West,262,1.0,3.0,73,0.00,,,0.00,meteohub,2013-03-04 02:58:00,
2013-03-03 22:03:00,28.6,21.0,30.43,WNW,289,1.0,3.0,73,0.00,,,0.00,meteohub,2013-03-04 03:03:00,
2013-03-03 22:08:00,28.6,20.7,30.43,WNW,295,1.0,4.0,72,0.00,,,0.00,meteohub,2013-03-04 03:08:00,
2013-03-03 22:13:00,28.6,20.7,30.43,WNW,302,1.0,4.0,72,0.00,,,0.00,meteohub,2013-03-04 03:13:00,
2013-03-03 22:18:00,28.2,20.7,30.43,WNW,300,1.0,3.0,73,0.00,,,0.00,meteohub,2013-03-04 03:18:00,
2013-03-03 22:23:00,28.2,20.7,30.43,West,274,1.0,2.0,73,0.00,,,0.00,meteohub,2013-03-04 03:23:00,
2013-03-03 22:28:00,28.2,20.7,30.43,WNW,287,1.0,4.0,73,0.00,,,0.00,meteohub,2013-03-04 03:28:00,
2013-03-03 22:33:00,28.2,20.7,30.43,WNW,286,0.0,4.0,73,0.00,,,0.00,meteohub,2013-03-04 03:33:00,
2013-03-03 22:38:00,28.0,20.8,30.43,WNW,283,1.0,4.0,74,0.00,,,0.00,meteohub,2013-03-04 03:38:00,
2013-03-03 22:44:00,28.0,21.2,30.43,West,259,1.0,3.0,75,0.00,,,0.00,meteohub,2013-03-04 03:44:00,
2013-03-03 22:49:00,27.9,21.0,30.43,West,269,2.0,2.0,75,0.00,,,0.00,meteohub,2013-03-04 03:49:00,
2013-03-03 22:54:00,28.0,20.1,30.43,West,274,3.0,3.0,72,0.00,,,0.00,meteohub,2013-03-04 03:54:00,
2013-03-03 22:59:00,28.2,20.1,30.43,West,281,2.0,5.0,71,0.00,,,0.00,meteohub,2013-03-04 03:59:00,
2013-03-03 23:04:00,28.0,19.9,30.43,West,276,1.0,7.0,71,0.00,,,0.00,meteohub,2013-03-04 04:04:00,
2013-03-03 23:09:00,27.9,19.9,30.43,West,275,0.0,7.0,72,0.00,,,0.00,meteohub,2013-03-04 04:09:00,
2013-03-03 23:14:00,27.5,19.9,30.43,West,276,1.0,7.0,73,0.00,,,0.00,meteohub,2013-03-04 04:14:00,
2013-03-03 23:19:00,27.3,20.1,30.43,SW,233,1.0,2.0,74,0.00,,,0.00,meteohub,2013-03-04 04:19:00,
2013-03-03 23:24:00,27.1,20.3,30.43,WSW,248,2.0,3.0,75,0.00,,,0.00,meteohub,2013-03-04 04:24:00,
2013-03-03 23:29:00,27.0,20.5,30.43,WSW,250,2.0,3.0,76,0.00,,,0.00,meteohub,2013-03-04 04:29:00,
2013-03-03 23:34:00,26.8,20.5,30.43,WSW,250,2.0,3.0,77,0.00,,,0.00,meteohub,2013-03-04 04:34:00,
2013-03-03 23:39:00,26.4,20.5,30.43,WSW,239,2.0,3.0,78,0.00,,,0.00,meteohub,2013-03-04 04:39:00,
2013-03-03 23:44:00,26.2,20.7,30.43,WSW,252,3.0,3.0,79,0.00,,,0.00,meteohub,2013-03-04 04:44:00,
2013-03-03 23:49:00,26.2,20.8,30.43,WSW,251,4.0,4.0,80,0.00,,,0.00,meteohub,2013-03-04 04:49:00,
2013-03-03 23:54:00,26.1,20.7,30.43,WSW,252,3.0,4.0,80,0.00,,,0.00,meteohub,2013-03-04 04:54:00,
2013-03-03 23:59:00,26.1,21.0,30.44,WSW,252,2.0,4.0,81,0.00,,,0.00,meteohub,2013-03-04 04:59:00,